Tracking 19709 objects as of 20-Jun-2019
HD Live streaming from Space Station
objects crossing your sky now

GORIZONT 2

Track GORIZONT 2 now!
GORIZONT 2 is classified as:


NORAD ID: 11440
Int'l Code: 1979-062A
Perigee: 35,783.0 km
Apogee: 35,804.2 km
Inclination: 11.6 °
Period: 1,436.1 minutes
Semi major axis: 42164 km
RCS: 3.981 m2 (large)
Launch date: July 5, 1979
Source: Commonwealth of Independent States (former USSR) (CIS)
Launch site: TYURATAM MISSILE AND SPACE COMPLEX (TTMTR)
aabbcc
Your satellite tracking list
Your tracking list is empty




NASA's NSSDC Master Catalog

Two Line Element Set (TLE):
1 11440U 79062A   19171.41175814 -.00000243  00000-0  00000+0 0  9993
2 11440  11.6248 314.9025 0002512 314.0555 237.8628  1.00272344112408
Source of the keplerian elements: AFSPC